Zurück zum Katalog

COSMOS 2251 DEB

AktivLEO
NORAD 38486·DEBRIS·🇷🇺 Russia

Gestartet Jun 16, 1993 von Plesetsk Cosmodrome

Loading…

Nächste Überflüge (nächste 24 Stunden)

TLE

AktuellSource: Space-Track

Epoche: Sep 13, 2026, 02:37 UTC

1 38486U 93036BTW 26256.10928390  .00009224  00000-0  11781-2 0  9990
2 38486  73.9403  23.1339 0029833  99.0561  75.4081 14.81224553794878

Verfolge COSMOS 2251 DEB in Echtzeit mit AllMySat

Download on the App Store